User: anonymous   Login
Location: Newark
(28.4500°N, 16.2500°W)
Time: 16:25:29
(UTC+00:00)
Language:

UKube-1 - Orbit

View from above orbital plane
View from above orbital plane
View from above satellite
View from above satellite

Ground track
Ground track

The orbit data is extracted from the following two-line orbital elements,

1 40074U 14037F   19260.44857217  .00000188  00000-0  29697-4 0  9990
2 40074  98.4460  67.6088 0003110 297.0835  63.0065 14.84094717281110
Epoch (UTC): 17 September 2019 10:45:56
Eccentricity: 0.0003110
inclination: 98.4460°
perigee height: 614 km
apogee height: 618 km
right ascension of ascending node: 67.6088°
argument of perigee: 297.0835°
revolutions per day: 14.84094717
mean anomaly at epoch: 63.0065°
orbit number at epoch: 28111

The dashed part of the orbit path shows where the satellite is in the earth's shadow,  

DLR